Location: Newark
(44.3290°N, 23.7757°E)
Time: 22:55:34
(UTC+00:00)

X-37B - Visible Passes

Search period start: 28 January 2022 00:00
Search period end: 07 February 2022 00:00
Orbit: 331 x 339 km, 45.0° (Epoch: 27 January)

Date Brightness Start Highest point End Pass type
(mag) Time Alt. Az. Time Alt. Az. Time Alt. Az.
28 Jan 1.8 16:24:25 10° SSW 16:26:47 24° SSE 16:28:22 15° ESE visible
28 Jan 3.8 17:59:14 10° WSW 17:59:36 13° WSW 17:59:36 13° WSW visible
29 Jan 0.7 16:44:20 10° WSW 16:47:05 50° SSE 16:48:02 32° ESE visible
30 Jan 0.1 17:04:41 10° WSW 17:07:30 87° SSE 17:07:39 78° E visible
31 Jan 1.3 17:25:10 10° W 17:27:16 45° WNW 17:27:16 45° WNW visible
01 Feb 0.2 16:10:07 10° WSW 16:12:56 87° S 16:15:39 11° E visible
01 Feb 2.8 17:45:39 10° W 17:46:52 23° W 17:46:52 23° W visible
02 Feb 0.3 16:30:36 10° W 16:33:26 74° N 16:35:16 19° E visible
02 Feb 3.8 18:06:07 10° W 18:06:29 13° W 18:06:29 13° W visible
03 Feb 0.2 16:51:05 10° W 16:53:55 80° N 16:54:55 36° E visible
04 Feb 0.3 17:11:34 10° W 17:14:23 69° SSW 17:14:37 63° SSE visible
05 Feb 1.8 17:32:07 10° W 17:34:25 33° SW 17:34:25 33° SW visible
06 Feb 0.5 16:17:01 10° W 16:19:49 69° SSW 16:22:38 10° ESE visible
06 Feb 3.2 17:53:03 10° WSW 17:54:19 16° SW 17:54:19 16° SW visible
